Time,TemperatureF,DewpointF,PressureIn,WindDirection,WindDirectionDegrees,WindSpeedMPH,WindSpeedGustMPH,Humidity,HourlyPrecipIn,Conditions,Clouds,dailyrainin,SoftwareType,DateUTC
2013-01-23 00:03:00,4.0,-3.0,30.19,SW,221,2.0,9.0,71,0.00,,,0.00,,2013-01-23 05:03:00,
2013-01-23 00:12:00,4.0,-3.0,30.19,SW,221,2.0,9.0,71,0.00,,,0.00,,2013-01-23 05:12:00,
2013-01-23 00:22:00,4.0,-3.0,30.19,West,281,0.0,8.0,72,0.00,,,0.00,,2013-01-23 05:22:00,
2013-01-23 00:33:00,3.0,-3.0,30.19,WNW,302,1.0,3.0,74,0.00,,,0.00,,2013-01-23 05:33:00,
2013-01-23 00:43:00,3.0,-3.0,30.19,WNW,302,1.0,3.0,74,0.00,,,0.00,,2013-01-23 05:43:00,
2013-01-23 00:53:00,3.0,-4.0,30.19,WSW,253,4.0,8.0,73,0.00,,,0.00,,2013-01-23 05:53:00,
2013-01-23 01:03:00,2.0,-6.0,30.18,WNW,293,1.0,5.0,69,0.00,,,0.00,,2013-01-23 06:03:00,
2013-01-23 01:12:00,2.0,-6.0,30.18,WNW,293,1.0,5.0,69,0.00,,,0.00,,2013-01-23 06:12:00,
2013-01-23 01:22:00,1.0,-6.0,30.19,West,272,0.0,3.0,70,0.00,,,0.00,,2013-01-23 06:22:00,
2013-01-23 01:33:00,0.0,-7.0,30.19,West,278,1.0,2.0,71,0.00,,,0.00,,2013-01-23 06:33:00,
2013-01-23 01:43:00,0.0,-7.0,30.19,West,278,1.0,2.0,71,0.00,,,0.00,,2013-01-23 06:43:00,
2013-01-23 01:53:00,0.0,-7.0,30.19,West,270,0.0,0.0,71,0.00,,,0.00,,2013-01-23 06:53:00,
2013-01-23 02:02:00,-1.0,-7.0,30.20,West,269,0.0,0.0,74,0.00,,,0.00,,2013-01-23 07:02:00,
2013-01-23 02:13:00,-1.0,-7.0,30.20,West,269,0.0,0.0,74,0.00,,,0.00,,2013-01-23 07:13:00,
2013-01-23 02:23:00,-2.0,-8.0,30.20,West,269,0.0,0.0,76,0.00,,,0.00,,2013-01-23 07:23:00,
2013-01-23 02:33:00,-3.0,-8.0,30.20,West,269,0.0,1.0,78,0.00,,,0.00,,2013-01-23 07:33:00,
2013-01-23 02:42:00,-3.0,-8.0,30.20,West,269,0.0,1.0,78,0.00,,,0.00,,2013-01-23 07:42:00,
2013-01-23 02:53:00,-4.0,-9.0,30.21,West,270,0.0,0.0,80,0.00,,,0.00,,2013-01-23 07:53:00,
2013-01-23 03:02:00,-5.0,-9.0,30.21,West,270,0.0,0.0,81,0.00,,,0.00,,2013-01-23 08:02:00,
2013-01-23 03:13:00,-5.0,-9.0,30.21,West,270,0.0,0.0,81,0.00,,,0.00,,2013-01-23 08:13:00,
2013-01-23 03:23:00,-6.0,-10.0,30.21,West,270,0.0,0.0,82,0.00,,,0.00,,2013-01-23 08:23:00,
2013-01-23 03:33:00,-6.0,-10.0,30.21,West,269,0.0,1.0,83,0.00,,,0.00,,2013-01-23 08:33:00,
2013-01-23 03:43:00,-6.0,-10.0,30.21,West,269,0.0,1.0,83,0.00,,,0.00,,2013-01-23 08:43:00,
2013-01-23 03:53:00,-7.0,-11.0,30.21,West,270,0.0,0.0,82,0.00,,,0.00,,2013-01-23 08:53:00,
2013-01-23 04:03:00,-8.0,-12.0,30.21,West,270,0.0,1.0,84,0.00,,,0.00,,2013-01-23 09:03:00,
2013-01-23 04:12:00,-8.0,-12.0,30.21,West,270,0.0,1.0,84,0.00,,,0.00,,2013-01-23 09:12:00,
2013-01-23 04:22:00,-8.0,-12.0,30.21,West,270,0.0,1.0,84,0.00,,,0.00,,2013-01-23 09:22:00,
2013-01-23 04:33:00,-8.0,-12.0,30.22,West,269,0.0,1.0,84,0.00,,,0.00,,2013-01-23 09:33:00,
2013-01-23 04:43:00,-8.0,-12.0,30.22,West,269,0.0,1.0,84,0.00,,,0.00,,2013-01-23 09:43:00,
2013-01-23 04:53:00,-7.0,-10.0,30.22,WNW,293,0.0,1.0,85,0.00,,,0.00,,2013-01-23 09:53:00,
2013-01-23 05:03:00,-8.0,-12.0,30.22,WNW,288,1.0,1.0,84,0.00,,,0.00,,2013-01-23 10:03:00,
2013-01-23 05:12:00,-8.0,-12.0,30.22,WNW,288,1.0,1.0,84,0.00,,,0.00,,2013-01-23 10:12:00,
2013-01-23 05:23:00,-9.0,-12.0,30.22,WNW,288,0.0,1.0,84,0.00,,,0.00,,2013-01-23 10:23:00,
2013-01-23 05:33:00,-9.0,-12.0,30.23,WNW,287,0.0,1.0,84,0.00,,,0.00,,2013-01-23 10:33:00,
2013-01-23 05:43:00,-9.0,-12.0,30.23,WNW,287,0.0,1.0,84,0.00,,,0.00,,2013-01-23 10:43:00,
2013-01-23 05:53:00,-9.0,-12.0,30.23,West,274,0.0,1.0,84,0.00,,,0.00,,2013-01-23 10:53:00,
2013-01-23 06:03:00,-10.0,-13.0,30.23,West,274,0.0,1.0,84,0.00,,,0.00,,2013-01-23 11:03:00,
2013-01-23 06:12:00,-10.0,-13.0,30.23,West,274,0.0,1.0,84,0.00,,,0.00,,2013-01-23 11:12:00,
2013-01-23 06:23:00,-9.0,-12.0,30.23,NW,326,1.0,2.0,85,0.00,,,0.00,,2013-01-23 11:23:00,
2013-01-23 06:33:00,-9.0,-13.0,30.24,West,281,0.0,1.0,83,0.00,,,0.00,,2013-01-23 11:33:00,
2013-01-23 06:43:00,-9.0,-13.0,30.24,West,281,0.0,1.0,83,0.00,,,0.00,,2013-01-23 11:43:00,
2013-01-23 06:53:00,-10.0,-13.0,30.24,West,278,0.0,1.0,84,0.00,,,0.00,,2013-01-23 11:53:00,
2013-01-23 07:03:00,-10.0,-14.0,30.24,West,278,0.0,1.0,83,0.00,,,0.00,,2013-01-23 12:03:00,
2013-01-23 07:13:00,-10.0,-14.0,30.24,West,278,0.0,1.0,83,0.00,,,0.00,,2013-01-23 12:13:00,
2013-01-23 07:22:00,-10.0,-14.0,30.24,West,278,0.0,1.0,83,0.00,,,0.00,,2013-01-23 12:22:00,
2013-01-23 07:33:00,-11.0,-15.0,30.25,West,278,0.0,0.0,83,0.00,,,0.00,,2013-01-23 12:33:00,
2013-01-23 07:43:00,-11.0,-15.0,30.25,West,278,0.0,0.0,83,0.00,,,0.00,,2013-01-23 12:43:00,
2013-01-23 07:53:00,-11.0,-14.0,30.25,West,278,0.0,1.0,84,0.00,,,0.00,,2013-01-23 12:53:00,
2013-01-23 08:04:00,-11.0,-14.0,30.26,West,278,0.0,0.0,84,0.00,,,0.00,,2013-01-23 13:04:00,
2013-01-23 08:13:00,-11.0,-14.0,30.26,West,278,0.0,0.0,84,0.00,,,0.00,,2013-01-23 13:13:00,
2013-01-23 08:23:00,-11.0,-14.0,30.26,West,278,0.0,0.0,84,0.00,,,0.00,,2013-01-23 13:23:00,
2013-01-23 08:33:00,-9.0,-12.0,30.27,West,272,0.0,2.0,86,0.00,,,0.00,,2013-01-23 13:33:00,
2013-01-23 08:43:00,-9.0,-12.0,30.27,West,272,0.0,2.0,86,0.00,,,0.00,,2013-01-23 13:43:00,
2013-01-23 08:53:00,-7.0,-11.0,30.27,West,273,1.0,3.0,83,0.00,,,0.00,,2013-01-23 13:53:00,
2013-01-23 09:03:00,-5.0,-10.0,30.28,WSW,238,0.0,3.0,79,0.00,,,0.00,,2013-01-23 14:03:00,
2013-01-23 09:12:00,-5.0,-10.0,30.28,WSW,238,0.0,3.0,79,0.00,,,0.00,,2013-01-23 14:12:00,
2013-01-23 09:23:00,-4.0,-10.0,30.27,WSW,250,1.0,3.0,76,0.00,,,0.00,,2013-01-23 14:23:00,
2013-01-23 09:33:00,-2.0,-9.0,30.28,West,269,0.0,4.0,72,0.00,,,0.00,,2013-01-23 14:33:00,
2013-01-23 09:43:00,-2.0,-9.0,30.28,West,269,0.0,4.0,72,0.00,,,0.00,,2013-01-23 14:43:00,
2013-01-23 09:53:00,0.0,-7.0,30.28,West,266,0.0,3.0,71,0.00,,,0.00,,2013-01-23 14:53:00,
2013-01-23 10:03:00,1.0,-8.0,30.28,ESE,120,0.0,4.0,65,0.00,,,0.00,,2013-01-23 15:03:00,
2013-01-23 10:13:00,1.0,-8.0,30.28,ESE,120,0.0,4.0,65,0.00,,,0.00,,2013-01-23 15:13:00,
2013-01-23 10:23:00,1.0,-9.0,30.29,WSW,243,0.0,4.0,61,0.00,,,0.00,,2013-01-23 15:23:00,
2013-01-23 10:33:00,2.0,-8.0,30.29,ESE,120,0.0,2.0,62,0.00,,,0.00,,2013-01-23 15:33:00,
2013-01-23 10:43:00,2.0,-8.0,30.29,ESE,120,0.0,2.0,62,0.00,,,0.00,,2013-01-23 15:43:00,
2013-01-23 10:53:00,3.0,-7.0,30.29,West,280,0.0,3.0,62,0.00,,,0.00,,2013-01-23 15:53:00,
2013-01-23 11:03:00,4.0,-8.0,30.29,NW,309,0.0,3.0,56,0.00,,,0.00,,2013-01-23 16:03:00,
2013-01-23 11:12:00,4.0,-8.0,30.29,NW,309,0.0,3.0,56,0.00,,,0.00,,2013-01-23 16:12:00,
2013-01-23 11:23:00,3.0,-9.0,30.29,WNW,294,1.0,7.0,56,0.00,,,0.00,,2013-01-23 16:23:00,
2013-01-23 11:33:00,3.0,-8.0,30.29,ESE,115,1.0,6.0,60,0.00,,,0.00,,2013-01-23 16:33:00,
2013-01-23 11:42:00,3.0,-8.0,30.29,ESE,115,1.0,6.0,60,0.00,,,0.00,,2013-01-23 16:42:00,
2013-01-23 11:53:00,5.0,-6.0,30.28,NNE,15,1.0,4.0,59,0.00,,,0.00,,2013-01-23 16:53:00,
2013-01-23 12:03:00,3.0,-7.0,30.27,West,276,1.0,7.0,62,0.00,,,0.00,,2013-01-23 17:03:00,
2013-01-23 12:12:00,3.0,-7.0,30.27,West,276,1.0,7.0,62,0.00,,,0.00,,2013-01-23 17:12:00,
2013-01-23 12:23:00,3.0,-8.0,30.26,SSW,205,1.0,7.0,59,0.00,,,0.00,,2013-01-23 17:23:00,
2013-01-23 12:33:00,3.0,-7.0,30.26,ENE,73,1.0,11.0,61,0.00,,,0.00,,2013-01-23 17:33:00,
2013-01-23 12:43:00,3.0,-7.0,30.26,ENE,73,1.0,11.0,61,0.00,,,0.00,,2013-01-23 17:43:00,
2013-01-23 12:53:00,2.0,-9.0,30.25,WSW,245,6.0,15.0,60,0.00,,,0.00,,2013-01-23 17:53:00,
2013-01-23 13:03:00,3.0,-8.0,30.24,West,281,6.0,16.0,60,0.00,,,0.00,,2013-01-23 18:03:00,
2013-01-23 13:12:00,3.0,-8.0,30.24,West,281,6.0,16.0,60,0.00,,,0.00,,2013-01-23 18:12:00,
2013-01-23 13:23:00,3.0,-7.0,30.24,West,274,2.0,13.0,61,0.00,,,0.00,,2013-01-23 18:23:00,
2013-01-23 13:33:00,3.0,-7.0,30.24,West,274,2.0,13.0,61,0.00,,,0.00,,2013-01-23 18:33:00,
2013-01-23 13:43:00,4.0,-6.0,30.23,East,79,1.0,8.0,61,0.00,,,0.00,,2013-01-23 18:43:00,
2013-01-23 13:53:00,3.0,-8.0,30.24,West,262,7.0,16.0,59,0.00,,,0.00,,2013-01-23 18:53:00,
2013-01-23 14:03:00,4.0,-7.0,30.24,WSW,258,3.0,19.0,60,0.00,,,0.00,,2013-01-23 19:03:00,
2013-01-23 14:13:00,4.0,-7.0,30.24,WSW,258,3.0,19.0,60,0.00,,,0.00,,2013-01-23 19:13:00,
2013-01-23 14:23:00,3.0,-7.0,30.23,NNE,23,3.0,12.0,61,0.00,,,0.00,,2013-01-23 19:23:00,
2013-01-23 14:33:00,4.0,-6.0,30.24,West,276,2.0,12.0,61,0.00,,,0.00,,2013-01-23 19:33:00,
2013-01-23 14:43:00,4.0,-6.0,30.24,West,276,2.0,12.0,61,0.00,,,0.00,,2013-01-23 19:43:00,
2013-01-23 14:53:00,4.0,-7.0,30.24,West,262,2.0,11.0,60,0.00,,,0.00,,2013-01-23 19:53:00,
2013-01-23 15:03:00,4.0,-7.0,30.24,East,101,2.0,11.0,60,0.00,,,0.00,,2013-01-23 20:03:00,
2013-01-23 15:13:00,4.0,-7.0,30.24,East,101,2.0,11.0,60,0.00,,,0.00,,2013-01-23 20:13:00,
2013-01-23 15:23:00,4.0,-7.0,30.25,West,277,4.0,11.0,59,0.00,,,0.00,,2013-01-23 20:23:00,
2013-01-23 15:33:00,4.0,-6.0,30.25,SSW,212,1.0,8.0,61,0.00,,,0.00,,2013-01-23 20:33:00,
2013-01-23 15:43:00,4.0,-6.0,30.25,SSW,212,1.0,8.0,61,0.00,,,0.00,,2013-01-23 20:43:00,
2013-01-23 15:54:00,3.0,-8.0,30.25,West,274,4.0,12.0,60,0.00,,,0.00,,2013-01-23 20:54:00,
2013-01-23 16:03:00,4.0,-7.0,30.25,West,263,3.0,7.0,60,0.00,,,0.00,,2013-01-23 21:03:00,
2013-01-23 16:12:00,4.0,-7.0,30.25,West,263,3.0,7.0,60,0.00,,,0.00,,2013-01-23 21:12:00,
2013-01-23 16:23:00,4.0,-6.0,30.25,ENE,62,2.0,7.0,61,0.00,,,0.00,,2013-01-23 21:23:00,
2013-01-23 16:33:00,4.0,-6.0,30.25,ENE,62,2.0,7.0,61,0.00,,,0.00,,2013-01-23 21:33:00,
2013-01-23 16:43:00,4.0,-6.0,30.25,ENE,62,2.0,7.0,61,0.00,,,0.00,,2013-01-23 21:43:00,
2013-01-23 16:52:00,3.0,-7.0,30.25,West,281,1.0,5.0,62,0.00,,,0.00,,2013-01-23 21:52:00,
2013-01-23 17:03:00,3.0,-7.0,30.25,West,281,1.0,5.0,62,0.00,,,0.00,,2013-01-23 22:03:00,
2013-01-23 17:13:00,3.0,-7.0,30.25,West,281,1.0,5.0,62,0.00,,,0.00,,2013-01-23 22:13:00,
2013-01-23 17:23:00,2.0,-7.0,30.25,NNW,340,1.0,3.0,64,0.00,,,0.00,,2013-01-23 22:23:00,
2013-01-23 17:33:00,2.0,-7.0,30.26,West,267,0.0,3.0,65,0.00,,,0.00,,2013-01-23 22:33:00,
2013-01-23 17:43:00,2.0,-7.0,30.26,West,267,0.0,3.0,65,0.00,,,0.00,,2013-01-23 22:43:00,
2013-01-23 17:53:00,1.0,-8.0,30.26,West,267,0.0,1.0,65,0.00,,,0.00,,2013-01-23 22:53:00,
2013-01-23 18:03:00,1.0,-8.0,30.26,WNW,293,0.0,2.0,66,0.00,,,0.00,,2013-01-23 23:03:00,
2013-01-23 18:13:00,1.0,-8.0,30.26,WNW,293,0.0,2.0,66,0.00,,,0.00,,2013-01-23 23:13:00,
2013-01-23 18:23:00,0.0,-9.0,30.27,West,266,0.0,1.0,66,0.00,,,0.00,,2013-01-23 23:23:00,
2013-01-23 18:33:00,1.0,-7.0,30.27,WNW,290,0.0,1.0,68,0.00,,,0.00,,2013-01-23 23:33:00,
2013-01-23 18:43:00,1.0,-7.0,30.27,WNW,290,0.0,1.0,68,0.00,,,0.00,,2013-01-23 23:43:00,
2013-01-23 18:53:00,0.0,-8.0,30.26,WNW,291,0.0,1.0,68,0.00,,,0.00,,2013-01-23 23:53:00,
2013-01-23 19:03:00,0.0,-8.0,30.27,West,267,0.0,2.0,69,0.00,,,0.00,,2013-01-24 00:03:00,
2013-01-23 19:12:00,0.0,-8.0,30.27,West,267,0.0,2.0,69,0.00,,,0.00,,2013-01-24 00:12:00,
2013-01-23 19:22:00,-1.0,-8.0,30.27,West,267,0.0,0.0,72,0.00,,,0.00,,2013-01-24 00:22:00,
2013-01-23 19:33:00,-2.0,-8.0,30.27,West,267,0.0,1.0,76,0.00,,,0.00,,2013-01-24 00:33:00,
2013-01-23 19:43:00,-2.0,-8.0,30.27,West,267,0.0,1.0,76,0.00,,,0.00,,2013-01-24 00:43:00,
2013-01-23 19:53:00,-3.0,-8.0,30.27,West,267,0.0,1.0,77,0.00,,,0.00,,2013-01-24 00:53:00,
2013-01-23 20:03:00,-3.0,-8.0,30.26,West,267,0.0,1.0,77,0.00,,,0.00,,2013-01-24 01:03:00,
2013-01-23 20:12:00,-3.0,-8.0,30.26,West,267,0.0,1.0,77,0.00,,,0.00,,2013-01-24 01:12:00,
2013-01-23 20:23:00,-5.0,-10.0,30.26,West,267,0.0,1.0,78,0.00,,,0.00,,2013-01-24 01:23:00,
2013-01-23 20:33:00,-6.0,-11.0,30.26,West,266,0.0,0.0,80,0.00,,,0.00,,2013-01-24 01:33:00,
2013-01-23 20:43:00,-6.0,-11.0,30.26,West,266,0.0,0.0,80,0.00,,,0.00,,2013-01-24 01:43:00,
2013-01-23 20:52:00,-7.0,-11.0,30.26,West,267,0.0,0.0,82,0.00,,,0.00,,2013-01-24 01:52:00,
2013-01-23 21:03:00,-7.0,-11.0,30.26,West,266,0.0,1.0,83,0.00,,,0.00,,2013-01-24 02:03:00,
2013-01-23 21:12:00,-7.0,-11.0,30.26,West,266,0.0,1.0,83,0.00,,,0.00,,2013-01-24 02:12:00,
2013-01-23 21:23:00,-7.0,-10.0,30.26,West,281,0.0,1.0,85,0.00,,,0.00,,2013-01-24 02:23:00,
2013-01-23 21:33:00,-8.0,-12.0,30.26,WNW,292,0.0,1.0,84,0.00,,,0.00,,2013-01-24 02:33:00,
2013-01-23 21:42:00,-8.0,-12.0,30.26,WNW,292,0.0,1.0,84,0.00,,,0.00,,2013-01-24 02:42:00,
2013-01-23 21:52:00,-8.0,-12.0,30.26,WNW,292,0.0,1.0,84,0.00,,,0.00,,2013-01-24 02:52:00,
2013-01-23 22:03:00,-8.0,-12.0,30.26,WNW,285,0.0,1.0,84,0.00,,,0.00,,2013-01-24 03:03:00,
2013-01-23 22:12:00,-8.0,-12.0,30.26,WNW,285,0.0,1.0,84,0.00,,,0.00,,2013-01-24 03:12:00,
2013-01-23 22:22:00,-8.0,-12.0,30.26,NW,309,0.0,2.0,84,0.00,,,0.00,,2013-01-24 03:22:00,
2013-01-23 22:33:00,-9.0,-13.0,30.26,West,281,0.0,3.0,83,0.00,,,0.00,,2013-01-24 03:33:00,
2013-01-23 22:43:00,-9.0,-13.0,30.26,West,281,0.0,3.0,83,0.00,,,0.00,,2013-01-24 03:43:00,
2013-01-23 22:52:00,-9.0,-13.0,30.26,West,281,0.0,1.0,83,0.00,,,0.00,,2013-01-24 03:52:00,
2013-01-23 23:03:00,-10.0,-14.0,30.26,NW,313,1.0,2.0,83,0.00,,,0.00,,2013-01-24 04:03:00,
2013-01-23 23:12:00,-10.0,-14.0,30.26,NW,313,1.0,2.0,83,0.00,,,0.00,,2013-01-24 04:12:00,
2013-01-23 23:22:00,-10.0,-14.0,30.26,NW,313,1.0,2.0,83,0.00,,,0.00,,2013-01-24 04:22:00,
2013-01-23 23:33:00,-10.0,-13.0,30.26,NW,321,0.0,2.0,84,0.00,,,0.00,,2013-01-24 04:33:00,
2013-01-23 23:43:00,-10.0,-13.0,30.26,NW,321,0.0,2.0,84,0.00,,,0.00,,2013-01-24 04:43:00,
2013-01-23 23:53:00,-11.0,-15.0,30.26,West,270,0.0,1.0,82,0.00,,,0.00,,2013-01-24 04:53:00,